Wind from 168

Air temperature 20.6° C
Dewpoint 6.1° C

Last reported at 2014-Apr-19 08:36 UTC.
Time now 2014-Apr-19 09:30 UTC

Location: N 40°29' W 003°43'.
View on Google Maps.

See reports from other nearby stations

Tides Stations Pressure Air Temp Water Temp Dewpoint Dewpoint depression Visibility Wind Speed Wind Dir Waves Ship positions

  
sailing weather and tide predictions

DW8626 Madrid ES weather

date/time (UTC)wind fromknots sea level pressurealtimeterstation pressurevisibilityair tempwater tempwave heightnotes
2014-Apr-19 08:36 168 20.6
2014-Apr-19 08:21 120 19.4
2014-Apr-19 08:06 090 18.9
2014-Apr-19 07:51 266 18.9
2014-Apr-19 07:36 084 0 gusting 2 17.2
2014-Apr-19 07:21 054 17.8
2014-Apr-19 06:22 020 14.4
2014-Apr-19 05:52 112 13.9
2014-Apr-19 05:37 111 15.0
2014-Apr-19 05:22 038 15.0
2014-Apr-19 05:06 025 0 gusting 1 14.4
2014-Apr-19 04:51 117 14.4
2014-Apr-19 04:36 121 14.4
2014-Apr-19 04:08 108 15.6
2014-Apr-19 03:51 115 16.7
2014-Apr-19 03:36 098 16.7
2014-Apr-19 03:21 106 16.1
2014-Apr-19 03:06 086 2 gusting 4 16.7
2014-Apr-19 02:51 013 16.7
2014-Apr-19 02:36 029 3 gusting 5 17.2
2014-Apr-19 02:21 033 17.2
2014-Apr-19 02:06 012 0 gusting 4 17.2
2014-Apr-19 01:38 056 17.2
2014-Apr-19 01:21 097 18.9
2014-Apr-19 01:06 101 1 gusting 2 18.9
2014-Apr-19 00:51 082 1 gusting 2 18.3
2014-Apr-19 00:36 101 17.8
2014-Apr-19 00:21 009 17.8
2014-Apr-19 00:06 353 17.2
2014-Apr-18 23:51 240 17.2
2014-Apr-18 23:36 240 17.8
2014-Apr-18 23:08 119 18.9
2014-Apr-18 22:51 119 20.6
2014-Apr-18 22:36 103 21.1
2014-Apr-18 22:21 068 21.1
2014-Apr-18 22:06 006 1 gusting 4 21.1
2014-Apr-18 21:51 028 1 gusting 2 21.1
2014-Apr-18 21:36 036 1 gusting 5 21.7
2014-Apr-18 21:21 356 2 gusting 5 21.7
2014-Apr-18 21:06 059 3 gusting 6 21.7
2014-Apr-18 20:38 051 0 gusting 3 22.2
2014-Apr-18 20:21 025 3 gusting 5 22.2
2014-Apr-18 20:06 026 2 gusting 6 22.2
2014-Apr-18 19:51 018 2 gusting 6 22.8
2014-Apr-18 19:36 013 2 gusting 4 23.3
2014-Apr-18 19:21 005 3 gusting 5 23.9
2014-Apr-18 19:06 020 1 gusting 3 23.9
2014-Apr-18 18:52 006 2 gusting 3 24.4
2014-Apr-18 18:36 342 1 gusting 3 25.6
2014-Apr-18 18:22 324 1 gusting 6 25.6
2014-Apr-18 18:06 342 4 gusting 5 26.1
2014-Apr-18 17:52 297 4 gusting 10 26.1
2014-Apr-18 17:36 291 3 gusting 6 26.7
2014-Apr-18 17:21 354 4 gusting 7 26.7
2014-Apr-18 16:52 271 5 gusting 9 26.7
2014-Apr-18 16:36 275 5 gusting 11 27.2
2014-Apr-18 16:21 277 6 gusting 13 26.7
2014-Apr-18 16:07 281 4 gusting 11 27.2
2014-Apr-18 15:52 236 9 gusting 11 26.7
2014-Apr-18 15:36 231 4 gusting 15 26.7
2014-Apr-18 15:23 191 2 gusting 8 26.7
2014-Apr-18 14:37 041 26.7
2014-Apr-18 14:23 351 1 gusting 4 26.7
2014-Apr-18 13:52 239 2 gusting 9 26.7
2014-Apr-18 13:38 139 1 gusting 9 26.1
2014-Apr-18 13:07 170 3 gusting 6 26.1
2014-Apr-18 12:52 257 1 gusting 4 25.6
2014-Apr-18 12:37 192 0 gusting 2 26.1
2014-Apr-18 12:23 137 0 gusting 7 25.6
2014-Apr-18 12:08 130 1 gusting 5 25.0
2014-Apr-18 11:52 103 1 gusting 4 25.0
2014-Apr-18 11:38 259 0 gusting 5 25.0
2014-Apr-18 11:23 186 1 gusting 5 25.0
2014-Apr-18 10:22 195 5 gusting 6 23.3
2014-Apr-18 10:07 160 0 gusting 2 23.9
2014-Apr-18 09:52 137 1 gusting 3 23.9
2014-Apr-18 09:37 134 23.9
2014-Apr-18 09:22 231 0 gusting 1 22.8
2014-Apr-18 09:07 148 0 gusting 0 22.2
2014-Apr-18 08:37 117 21.1
2014-Apr-18 07:52 136 20.6
2014-Apr-18 07:37 297 18.9
2014-Apr-18 07:07 033 2 gusting 3 16.1
2014-Apr-18 06:52 019 2 gusting 6 15.6
2014-Apr-18 06:37 044 15.0
2014-Apr-18 06:23 354 14.4
2014-Apr-18 05:23 065 15.0
2014-Apr-18 05:06 079 15.0
2014-Apr-18 04:51 018 1 gusting 6 15.0
2014-Apr-18 04:36 044 3 gusting 6 15.0
2014-Apr-18 04:21 051 3 gusting 7 15.0
2014-Apr-18 04:06 045 0 gusting 6 15.0
2014-Apr-18 03:51 056 3 gusting 6 15.6
2014-Apr-18 03:36 046 5 gusting 8 15.6
2014-Apr-18 03:08 009 2 gusting 10 16.1
2014-Apr-18 02:51 050 6 gusting 10 16.1
2014-Apr-18 02:36 038 6 gusting 11 16.1
2014-Apr-18 02:21 058 6 gusting 11 16.1
2014-Apr-18 02:06 041 6 gusting 11 16.7
2014-Apr-18 01:51 026 2 gusting 9 16.7
2014-Apr-18 01:36 026 1 gusting 7 17.2
2014-Apr-18 01:21 030 0 gusting 10 17.8
2014-Apr-18 01:06 030 1 gusting 6 17.8
2014-Apr-18 00:38 045 18.3
2014-Apr-18 00:21 043 2 gusting 10 18.9
2014-Apr-18 00:06 027 4 gusting 11 18.9
2014-Apr-17 23:51 027 7 gusting 15 18.9
2014-Apr-17 23:36 010 12 gusting 14 18.9
2014-Apr-17 23:21 046 11 gusting 13 18.9
2014-Apr-17 23:06 029 6 gusting 12 19.4
2014-Apr-17 22:51 023 11 gusting 13 19.4
2014-Apr-17 22:36 046 7 gusting 13 20.0
2014-Apr-17 22:08 007 6 gusting 15 20.6
2014-Apr-17 21:51 016 9 gusting 16 20.0
2014-Apr-17 21:36 015 7 gusting 13 20.6
2014-Apr-17 21:21 025 9 gusting 12 20.6
2014-Apr-17 21:06 356 6 gusting 12 21.1
2014-Apr-17 20:51 011 7 gusting 11 21.7
2014-Apr-17 20:36 023 6 gusting 10 21.7
2014-Apr-17 20:21 355 6 gusting 15 22.2
2014-Apr-17 20:06 349 6 gusting 9 22.2
2014-Apr-17 19:53 019 6 gusting 7 22.2
2014-Apr-17 19:38 357 6 gusting 10 22.8
2014-Apr-17 19:21 012 8 gusting 12 23.3
2014-Apr-17 19:06 008 6 gusting 13 23.9
2014-Apr-17 18:52 020 6 gusting 12 24.4
2014-Apr-17 18:36 016 8 gusting 13 25.0
2014-Apr-17 18:22 026 12 gusting 13 25.6
2014-Apr-17 18:06 026 7 gusting 13 25.6
2014-Apr-17 17:52 012 9 gusting 15 26.1
2014-Apr-17 17:36 020 5 gusting 9 26.7
2014-Apr-17 17:08 336 5 gusting 5 26.1
2014-Apr-17 16:51 019 7 gusting 12 26.1
2014-Apr-17 16:36 128 2 gusting 6 26.7
2014-Apr-17 16:07 013 5 gusting 7 26.7
2014-Apr-17 15:53 358 4 gusting 9 26.7
2014-Apr-17 15:36 099 27.8
2014-Apr-17 15:23 260 1 gusting 4 27.2
2014-Apr-17 15:07 127 2 gusting 3 27.8
2014-Apr-17 14:55 228 3 gusting 3 26.7
2014-Apr-17 14:22 001 1 gusting 4 26.7
2014-Apr-17 14:07 032 27.2
2014-Apr-17 13:52 316 3 gusting 7 26.1
2014-Apr-17 13:37 283 4 gusting 10 26.1
2014-Apr-17 13:23 231 0 gusting 6 26.1
2014-Apr-17 13:06 226 26.1
2014-Apr-17 12:52 005 6 gusting 10 25.6
2014-Apr-17 12:37 058 3 gusting 4 26.1
2014-Apr-17 11:24 315 1 gusting 4 25.0
2014-Apr-17 11:08 112 23.9
2014-Apr-17 10:53 103 0 gusting 4 24.4
2014-Apr-17 10:22 058 4 gusting 6 23.9
2014-Apr-17 10:06 342 4 gusting 5 22.8
2014-Apr-17 09:54 086 4 gusting 5 22.2
2014-Apr-17 09:21 153 0 gusting 2 22.2
2014-Apr-17 09:06 138 2 gusting 6 20.6